When you browse on this site, cookies collect data to enhance your experience and personalize the content and advertising you see.
Visit our Privacy Policy to learn more. By continuing to use the site, you agree to this use of cookies and data.
  • In Spain
  • List of Countries
  • For 7 days
  • Water Temperature
  • Weather Map
  • Weather Widgets
  • user-avatar
    Login

    Hourly Weather La Massana

    Today, 8 December, Sunday

    Time Temperature Precipitation Wind Pressure Humidity
    00:00 +1°C° 0 mm 1 mps 611 mmHg 75%
    01:00 +1°C° 0 mm 1 mps 611 mmHg 75%
    02:00 +1°C° 0 mm 1 mps 610 mmHg 74%
    03:00 +1°C° 0 mm 1 mps 610 mmHg 74%
    04:00 +1°C° 0 mm 1 mps 610 mmHg 72%
    05:00 +1°C° 0 mm 1 mps 610 mmHg 70%
    06:00 +1°C° 0 mm 1 mps 610 mmHg 66%
    07:00 +2°C° 0 mm 1 mps 611 mmHg 64%
    08:00 +3°C° 0 mm 1 mps 611 mmHg 62%
    09:00 +3°C° 0 mm 0 mps 612 mmHg 60%
    10:00 +6°C° 0 mm 1 mps 612 mmHg 59%
    11:00 +7°C° 0 mm 1 mps 612 mmHg 59%
    12:00 +8°C° 0 mm 1 mps 613 mmHg 59%
    13:00 +7°C° 0 mm 1 mps 612 mmHg 66%
    14:00 +6°C° 0 mm 1 mps 611 mmHg 72%
    15:00 +5°C° 0 mm 1 mps 611 mmHg 79%
    16:00 +5°C° 0.1 mm 1 mps 611 mmHg 83%
    17:00 +4°C° 0.1 mm 1 mps 610 mmHg 86%
    18:00 +2°C° 0.1 mm 2 mps 610 mmHg 90%
    19:00 +2°C° 0.3 mm 2 mps 611 mmHg 91%
    20:00 +2°C° 0.3 mm 2 mps 611 mmHg 92%
    21:00 +3°C° 0.3 mm 2 mps 611 mmHg 93%
    22:00 +2°C° 0 mm 2 mps 611 mmHg 92%
    23:00 +1°C° 0 mm 2 mps 611 mmHg 91%

    Tomorrow, 9 December, Monday

    Time Temperature Precipitation Wind Pressure Humidity
    00:00 -1°C° 0 mm 2 mps 610 mmHg 90%
    01:00 -1°C° 0 mm 2 mps 610 mmHg 78%
    02:00 -2°C° 0 mm 2 mps 610 mmHg 67%
    03:00 -2°C° 0 mm 2 mps 609 mmHg 55%
    04:00 -3°C° 0 mm 2 mps 609 mmHg 58%
    05:00 -3°C° 0 mm 2 mps 609 mmHg 61%
    06:00 -3°C° 0 mm 2 mps 609 mmHg 63%
    07:00 -4°C° 0.2 mm 3 mps 609 mmHg 68%
    08:00 -2°C° 0.2 mm 3 mps 610 mmHg 73%
    09:00 -1°C° 0.2 mm 3 mps 610 mmHg 78%
    10:00 -2°C° 0.7 mm 4 mps 610 mmHg 78%
    11:00 -2°C° 0.7 mm 4 mps 610 mmHg 78%
    12:00 -1°C° 0.7 mm 4 mps 611 mmHg 78%
    13:00 -2°C° 0.7 mm 4 mps 610 mmHg 79%
    14:00 -2°C° 0.7 mm 4 mps 610 mmHg 79%
    15:00 -2°C° 0.7 mm 3 mps 610 mmHg 80%
    16:00 -3°C° 1.1 mm 4 mps 610 mmHg 84%
    17:00 -4°C° 1.1 mm 4 mps 610 mmHg 89%
    18:00 -4°C° 1.1 mm 4 mps 610 mmHg 93%
    19:00 -4°C° 0.7 mm 4 mps 611 mmHg 92%
    20:00 -5°C° 0.7 mm 4 mps 611 mmHg 92%
    21:00 -5°C° 0.7 mm 4 mps 612 mmHg 91%
    22:00 -5°C° 0.3 mm 4 mps 612 mmHg 89%
    23:00 -6°C° 0.3 mm 5 mps 612 mmHg 88%

    Day after tomorrow, 10 December, Tuesday

    Time Temperature Precipitation Wind Pressure Humidity
    00:00 -6°C° 0.3 mm 5 mps 612 mmHg 86%
    01:00 -7°C° 0 mm 4 mps 611 mmHg 84%
    02:00 -7°C° 0 mm 4 mps 611 mmHg 81%
    03:00 -7°C° 0 mm 4 mps 611 mmHg 79%
    04:00 -8°C° 0 mm 4 mps 611 mmHg 74%
    05:00 -7°C° 0 mm 3 mps 611 mmHg 68%
    06:00 -7°C° 0 mm 3 mps 611 mmHg 63%
    07:00 -6°C° 0 mm 3 mps 611 mmHg 58%
    08:00 -4°C° 0 mm 3 mps 612 mmHg 53%
    09:00 -2°C° 0 mm 2 mps 613 mmHg 48%
    10:00 +1°C° 0 mm 2 mps 613 mmHg 50%
    11:00 +3°C° 0 mm 2 mps 614 mmHg 52%
    12:00 +5°C° 0 mm 1 mps 614 mmHg 54%
    13:00 +5°C° 0 mm 1 mps 613 mmHg 56%
    14:00 +4°C° 0 mm 1 mps 613 mmHg 59%
    15:00 +4°C° 0 mm 1 mps 612 mmHg 61%
    16:00 +3°C° 0 mm 1 mps 612 mmHg 56%
    17:00 -1°C° 0 mm 2 mps 611 mmHg 52%
    18:00 -2°C° 0 mm 2 mps 610 mmHg 47%
    19:00 -2°C° 0 mm 2 mps 610 mmHg 46%
    20:00 -2°C° 0 mm 2 mps 610 mmHg 44%
    21:00 -2°C° 0 mm 2 mps 610 mmHg 43%
    22:00 0°C° 0 mm 1 mps 610 mmHg 42%
    23:00 0°C° 0 mm 1 mps 610 mmHg 42%

    11 December, Wednesday

    Time Temperature Precipitation Wind Pressure Humidity
    00:00 0°C° 0 mm 1 mps 610 mmHg 41%
    01:00 +1°C° 0 mm 1 mps 610 mmHg 41%
    02:00 +1°C° 0 mm 1 mps 609 mmHg 41%
    03:00 +1°C° 0 mm 1 mps 609 mmHg 41%
    04:00 0°C° 0 mm 1 mps 609 mmHg 42%
    05:00 0°C° 0 mm 1 mps 608 mmHg 43%
    06:00 -2°C° 0 mm 2 mps 608 mmHg 43%
    07:00 +1°C° 0 mm 1 mps 608 mmHg 49%
    08:00 +2°C° 0 mm 1 mps 609 mmHg 56%
    09:00 +3°C° 0 mm 1 mps 609 mmHg 62%
    10:00 +3°C° 0 mm 1 mps 610 mmHg 62%
    11:00 +4°C° 0 mm 1 mps 610 mmHg 61%
    12:00 +5°C° 0 mm 1 mps 610 mmHg 61%
    13:00 +3°C° 0.2 mm 2 mps 610 mmHg 69%
    14:00 +2°C° 0.2 mm 2 mps 609 mmHg 77%
    15:00 +1°C° 0.2 mm 2 mps 608 mmHg 84%
    16:00 -1°C° 0.2 mm 2 mps 608 mmHg 87%
    17:00 -4°C° 0.2 mm 3 mps 608 mmHg 90%
    18:00 -5°C° 0.2 mm 3 mps 608 mmHg 93%
    19:00 -6°C° 0 mm 3 mps 608 mmHg 90%
    20:00 -7°C° 0 mm 3 mps 607 mmHg 87%
    21:00 -8°C° 0 mm 3 mps 607 mmHg 84%
    22:00 -7°C° 0.1 mm 2 mps 607 mmHg 84%
    23:00 -6°C° 0.1 mm 2 mps 607 mmHg 83%

    12 December, Thursday

    Time Temperature Precipitation Wind Pressure Humidity
    00:00 -6°C° 0.1 mm 2 mps 607 mmHg 83%
    01:00 -6°C° 0.3 mm 2 mps 607 mmHg 85%
    02:00 -6°C° 0.3 mm 2 mps 607 mmHg 87%
    03:00 -5°C° 0.3 mm 2 mps 607 mmHg 89%
    04:00 -5°C° 0.4 mm 2 mps 607 mmHg 90%
    05:00 -5°C° 0.4 mm 2 mps 607 mmHg 90%
    06:00 -5°C° 0.4 mm 2 mps 607 mmHg 91%
    07:00 -5°C° 0.2 mm 2 mps 607 mmHg 88%
    08:00 -2°C° 0.2 mm 1 mps 608 mmHg 85%
    09:00 -1°C° 0.2 mm 1 mps 608 mmHg 82%
    10:00 0°C° 0.1 mm 1 mps 608 mmHg 78%
    11:00 0°C° 0.1 mm 1 mps 609 mmHg 74%
    12:00 +1°C° 0.1 mm 1 mps 609 mmHg 70%
    13:00 +1°C° 0 mm 1 mps 608 mmHg 72%
    14:00 +1°C° 0 mm 1 mps 608 mmHg 74%
    15:00 +1°C° 0 mm 1 mps 607 mmHg 77%
    16:00 -1°C° 0 mm 1 mps 606 mmHg 81%
    17:00 -2°C° 0 mm 1 mps 605 mmHg 84%
    18:00 -4°C° 0 mm 1 mps 604 mmHg 88%
    19:00 -3°C° 0.1 mm 1 mps 604 mmHg 87%
    20:00 -3°C° 0.1 mm 1 mps 604 mmHg 86%
    21:00 -5°C° 0.1 mm 2 mps 604 mmHg 85%
    22:00 -4°C° 1 mm 2 mps 604 mmHg 87%
    23:00 -3°C° 1 mm 2 mps 604 mmHg 90%

    13 December, Friday

    Time Temperature Precipitation Wind Pressure Humidity
    00:00 0°C° 1 mm 1 mps 603 mmHg 92%
    01:00 -2°C° 1.2 mm 2 mps 603 mmHg 93%
    02:00 -1°C° 1.2 mm 2 mps 603 mmHg 95%
    03:00 -1°C° 1.2 mm 2 mps 603 mmHg 96%
    04:00 +1°C° 1.1 mm 2 mps 603 mmHg 96%
    05:00 +1°C° 1.1 mm 2 mps 603 mmHg 97%
    06:00 +1°C° 1.1 mm 2 mps 603 mmHg 97%
    07:00 +2°C° 1 mm 2 mps 603 mmHg 96%
    08:00 +2°C° 1 mm 2 mps 604 mmHg 96%
    09:00 +2°C° 1 mm 2 mps 604 mmHg 95%
    10:00 +3°C° 0.8 mm 2 mps 604 mmHg 93%
    11:00 +3°C° 0.8 mm 2 mps 604 mmHg 92%
    12:00 +3°C° 0.8 mm 2 mps 605 mmHg 90%
    13:00 +3°C° 0.4 mm 2 mps 605 mmHg 91%
    14:00 +3°C° 0.4 mm 2 mps 605 mmHg 93%
    15:00 +3°C° 0.4 mm 2 mps 604 mmHg 94%
    16:00 +3°C° 0.9 mm 2 mps 605 mmHg 94%
    17:00 +2°C° 0.9 mm 2 mps 605 mmHg 95%
    18:00 +2°C° 0.9 mm 2 mps 605 mmHg 96%
    19:00 +2°C° 0.3 mm 2 mps 605 mmHg 96%
    20:00 +2°C° 0.3 mm 2 mps 606 mmHg 96%
    21:00 +2°C° 0.3 mm 2 mps 606 mmHg 96%
    22:00 +1°C° 0 mm 2 mps 606 mmHg 96%
    23:00 +1°C° 0 mm 2 mps 606 mmHg 95%
    Show more